This is the latest recevied weather packets stored in our database for station/object KG5CK-1. If no packets are shown the sender has not sent any weather packets the latest 10 day(s).
| Time | Temp. | Humidity | Pressure | Rain* | Wind** | Luminosity | Snow |
|---|---|---|---|---|---|---|---|
| 1777997163 | 26.11° C | 75% | 1000.9 hPa | 0 mm | 2.24 m/s, 105° | - | - |
| 1777997102 | 26.11° C | 76% | 1000.7 hPa | 0 mm | 1.79 m/s, 231° | - | - |
| 1777997043 | 26.11° C | 76% | 1000.7 hPa | 0 mm | 1.79 m/s, 231° | - | - |
| 1777996983 | 26.11° C | 76% | 1000.7 hPa | 0 mm | 1.79 m/s, 231° | - | - |
| 1777996922 | 26.11° C | 76% | 1000.7 hPa | 0 mm | 1.79 m/s, 231° | - | - |
| 1777996863 | 26.11° C | 76% | 1000.7 hPa | 0 mm | 1.79 m/s, 231° | - | - |
| 1777996803 | 26.67° C | 75% | 1000.8 hPa | 0 mm | 3.13 m/s, 164° | - | - |
| 1777996742 | 26.67° C | 75% | 1000.8 hPa | 0 mm | 3.13 m/s, 164° | - | - |
| 1777996683 | 26.67° C | 75% | 1000.8 hPa | 0 mm | 3.13 m/s, 164° | - | - |
| 1777996623 | 26.67° C | 75% | 1000.8 hPa | 0 mm | 3.13 m/s, 164° | - | - |
| 1777996562 | 26.67° C | 75% | 1000.8 hPa | 0 mm | 3.13 m/s, 164° | - | - |
| 1777996503 | 26.11° C | 77% | 1000.9 hPa | 0 mm | 1.79 m/s, 145° | - | - |
| 1777996443 | 26.11° C | 77% | 1000.9 hPa | 0 mm | 1.79 m/s, 145° | - | - |
| 1777996382 | 26.11° C | 77% | 1000.9 hPa | 0 mm | 1.79 m/s, 145° | - | - |
| 1777996323 | 26.11° C | 77% | 1000.9 hPa | 0 mm | 1.79 m/s, 145° | - | - |
| 1777996262 | 26.11° C | 77% | 1000.9 hPa | 0 mm | 1.79 m/s, 145° | - | - |
| 1777996203 | 26.11° C | 77% | 1000.7 hPa | 0 mm | 2.24 m/s, 210° | - | - |
| 1777996143 | 26.11° C | 77% | 1000.7 hPa | 0 mm | 2.24 m/s, 210° | - | - |
| 1777996083 | 26.11° C | 77% | 1000.7 hPa | 0 mm | 2.24 m/s, 210° | - | - |
| 1777996022 | 26.11° C | 77% | 1000.7 hPa | 0 mm | 2.24 m/s, 210° | - | - |
| 1777995963 | 26.11° C | 77% | 1000.7 hPa | 0 mm | 2.24 m/s, 210° | - | - |
| 1777995902 | 26.11° C | 77% | 1000.6 hPa | 0 mm | 4.47 m/s, 165° | - | - |
| 1777995843 | 26.11° C | 77% | 1000.6 hPa | 0 mm | 4.47 m/s, 165° | - | - |
| 1777995783 | 26.11° C | 77% | 1000.6 hPa | 0 mm | 4.47 m/s, 165° | - | - |
| 1777995723 | 26.11° C | 77% | 1000.6 hPa | 0 mm | 4.47 m/s, 165° | - | - |
* Rain latest hour (hover to see other rain measurements)
** Current wind speed in m/s (hover to see current wind gust speed)